Location: Puketoi
(40.5833°S, 176.0167°E)
Time: 00:31:06
(UTC+00:00)

COSMOS 2455 - Pass Details

Date: 05 October 2023
Orbit: 902 x 907 km, 67.1° (Epoch: 03 December)

Event Time Altitude Azimuth Distance (km) Brightness Sun altitude
Rises 16:46:00 0° 200° (SSW) 3,561 5.9 -11.5°
Reaches altitude 10° 16:49:14 10° 184° (S) 2,614 5.4 -10.9°
Maximum altitude 16:53:41 21° 136° (SE) 1,947 5.4 -10.1°
Drops below altitude 10° 16:58:07 10° 89° (E) 2,597 6.7 -9.3°
Sets 17:01:18 0° 72° (ENE) 3,531 7.0 -8.7°
